Regional Weather Roundup
Issued by NWS

Home | Current Version | Previous Version | Text Only | Print | Product List | Glossary Off
Versions: 1 2 3 4 5 6 7 8 9 10 11 12 13 14 15 16 17 18 19 20 21 22 23 24 25 26 27 28 29 30 31 32 33 34 35 36 37 38 39 40 41 42 43 44 45 46 47 48 49 50

000
ASUS43 KFSD 252102
RWRSD

WEATHER ROUNDUP FOR SOUTH DAKOTA
NATIONAL WEATHER SERVICE SIOUX FALLS SD
400 PM CDT SAT APR 25 2015

NOTE: "FAIR" INDICATES FEW OR NO CLOUDS BELOW 12,000 FEET WITH NO
SIGNIFICANT WEATHER AND/OR OBSTRUCTIONS TO VISIBILITY.


SDZ001>005-009-010-012>017-252200-
NORTHWEST AND NORTH CENTRAL SOUTH DAKOTA

CITY           SKY/WX    TMP DP  RH WIND       PRES   REMARKS
BUFFALO          N/A     49  44  83 SE17      29.66S
FAITH            N/A     50  43  77 SE13      29.74F
MOBRIDGE       CLOUDY    53  44  71 SE12      29.78R
$$

SDZ012>016-024>037-041>051-057-063-072>074-252200-
SOUTHWEST AND SOUTH CENTRAL SOUTH DAKOTA

CITY           SKY/WX    TMP DP  RH WIND       PRES   REMARKS
RAPID CTY ARPT CLOUDY    51  46  83 SE13      29.72R
PIERRE         CLOUDY    56  49  77 SE12      29.76S
CUSTER         CLOUDY    49  44  83 S7        29.73R
ELLSWORTH AFB  CLOUDY    51  47  87 SE13      29.71R
PHILIP         CLOUDY    54  48  80 SE12      29.74F
PINE RIDGE     MOSUNNY   65  46  50 E10       29.69F
WINNER         CLOUDY    60  47  61 SE15      29.75S
$$

SDZ004>011-016>023-039-040-252200-
NORTHEAST SOUTH DAKOTA

CITY           SKY/WX    TMP DP  RH WIND       PRES   REMARKS
ABERDEEN       CLOUDY    51  42  71 E12G21    29.84S
WATERTOWN      PTSUNNY   52  42  69 E14G21    29.83S
BROOKINGS      CLOUDY    55  45  67 NE12      29.82R
SISSETON         N/A     49  42  77 SE9       29.86S
$$

SDZ017-020-022-023-036>040-048>070-252200-
SOUTHEAST SOUTH DAKOTA

CITY           SKY/WX    TMP DP  RH WIND       PRES   REMARKS
SIOUX FALLS    PTSUNNY   60  42  51 E15       29.77F
HURON          CLOUDY    60  43  53 SE12G22   29.78S
MITCHELL       CLOUDY    59  48  67 E14       29.78F
YANKTON        PTSUNNY   61  43  51 E16       29.75S
$$

ABBREVIATIONS USED IN REMARKS
   TC - TEMPERATURE IN CELSIUS
  WCI - WIND CHILL INDEX
   HX - HEAT INDEX
  VSB - VISIBILITY



USA.gov is the U.S. government's official web portal to all federal, state and local government web resources and services.